| time (UTC) | temp F | wind direction | speed knots | gust knots | rain 1hr in | rain 24hr in | rain mn in | humidity % | barometer mb |
| 20260503225154 | 64 | 292 | 4.3 | 7.0 | 0.00 | 0.00 | 0.00 | 27 | 1015.3 |
| 20260503224651 | 64 | 291 | 4.3 | 7.0 | 0.00 | 0.00 | 0.00 | 27 | 1015.4 |
| 20260503224149 | 64 | 300 | 4.3 | 6.1 | 0.00 | 0.00 | 0.00 | 26 | 1015.3 |
| 20260503223647 | 64 | 257 | 4.3 | 6.1 | 0.00 | 0.00 | 0.00 | 28 | 1015.0 |
| 20260503223143 | 64 | 240 | 0.9 | 8.7 | 0.00 | 0.00 | 0.00 | 26 | 1015.2 |
| 20260503222640 | 64 | 192 | 0.0 | 1.7 | 0.00 | 0.00 | 0.00 | 28 | 1015.3 |
| 20260503222138 | 64 | 242 | 4.3 | 6.1 | 0.00 | 0.00 | 0.00 | 26 | 1015.3 |
| 20260503221636 | 64 | 309 | 2.6 | 6.1 | 0.00 | 0.00 | 0.00 | 26 | 1015.4 |
| 20260503221133 | 64 | 355 | 6.1 | 12.2 | 0.00 | 0.00 | 0.00 | 26 | 1015.3 |
| 20260503220630 | 64 | 341 | 3.5 | 7.0 | 0.00 | 0.00 | 0.00 | 27 | 1015.5 |
| 20260503220126 | 64 | 253 | 4.3 | 8.7 | 0.00 | 0.00 | 0.00 | 26 | 1015.3 |
| 20260503215624 | 64 | 319 | 6.1 | 9.6 | 0.00 | 0.00 | 0.00 | 25 | 1015.5 |
| 20260503215120 | 64 | 291 | 3.5 | 6.1 | 0.00 | 0.00 | 0.00 | 26 | 1015.5 |
| 20260503214619 | 64 | 356 | 13.9 | 16.5 | 0.00 | 0.00 | 0.00 | 24 | 1015.6 |
| 20260503214115 | 64 | 289 | 4.3 | 7.0 | 0.00 | 0.00 | 0.00 | 26 | 1015.6 |
| 20260503213614 | 64 | 269 | 3.5 | 4.3 | 0.00 | 0.00 | 0.00 | 26 | 1015.5 |
| 20260503213110 | 64 | 203 | 6.1 | 9.6 | 0.00 | 0.00 | 0.00 | 25 | 1015.6 |
| 20260503212608 | 64 | 233 | 2.6 | 9.6 | 0.00 | 0.00 | 0.00 | 26 | 1015.5 |
| 20260503212105 | 63 | 295 | 4.3 | 7.0 | 0.00 | 0.00 | 0.00 | 27 | 1015.4 |
| 20260503211602 | 63 | 323 | 2.6 | 8.7 | 0.00 | 0.00 | 0.00 | 26 | 1015.6 |
| 20260503211057 | 64 | 44 | 7.8 | 9.6 | 0.00 | 0.00 | 0.00 | 27 | 1015.2 |
| 20260503210554 | 64 | 288 | 7.8 | 11.3 | 0.00 | 0.00 | 0.00 | 27 | 1015.4 |
| 20260503210050 | 64 | 325 | 4.3 | 9.6 | 0.00 | 0.00 | 0.00 | 27 | 1015.5 |
| 20260503205547 | 63 | 158 | 3.5 | 8.7 | 0.00 | 0.00 | 0.00 | 28 | 1015.6 |
| 20260503205043 | 64 | 312 | 8.7 | 9.6 | 0.00 | 0.00 | 0.00 | 26 | 1015.6 |
| 20260503204540 | 64 | 143 | 2.6 | 9.6 | 0.00 | 0.00 | 0.00 | 29 | 1015.8 |
| 20260503204038 | 64 | 257 | 6.1 | 8.7 | 0.00 | 0.00 | 0.00 | 26 | 1015.6 |
| 20260503203535 | 63 | 211 | 2.6 | 4.3 | 0.00 | 0.00 | 0.00 | 28 | 1015.6 |
| 20260503203032 | 64 | 248 | 2.6 | 8.7 | 0.00 | 0.00 | 0.00 | 29 | 1015.5 |
| 20260503202530 | 64 | 273 | 5.2 | 8.7 | 0.00 | 0.00 | 0.00 | 28 | 1015.4 |
| 20260503202027 | 64 | 270 | 4.3 | 8.7 | 0.00 | 0.00 | 0.00 | 26 | 1015.8 |
| 20260503201525 | 64 | 233 | 3.5 | 4.3 | 0.00 | 0.00 | 0.00 | 30 | 1016.2 |
| 20260503201022 | 63 | 260 | 2.6 | 8.7 | 0.00 | 0.00 | 0.00 | 27 | 1016.1 |
| 20260503200518 | 63 | 333 | 7.8 | 9.6 | 0.00 | 0.00 | 0.00 | 28 | 1016.1 |
| 20260503200015 | 63 | 267 | 4.3 | 9.6 | 0.00 | 0.00 | 0.00 | 30 | 1016.1 |
| 20260503195513 | 63 | 292 | 4.3 | 7.0 | 0.00 | 0.00 | 0.00 | 27 | 1016.1 |
| 20260503195009 | 63 | 323 | 3.5 | 12.2 | 0.00 | 0.00 | 0.00 | 27 | 1016.2 |
| 20260503194507 | 63 | 221 | 1.7 | 8.7 | 0.00 | 0.00 | 0.00 | 30 | 1016.3 |
| 20260503194006 | 63 | 313 | 4.3 | 9.6 | 0.00 | 0.00 | 0.00 | 30 | 1016.5 |
| 20260503193503 | 63 | 28 | 4.3 | 7.0 | 0.00 | 0.00 | 0.00 | 28 | 1016.6 |
| 20260503192958 | 62 | 210 | 3.5 | 12.2 | 0.00 | 0.00 | 0.00 | 27 | 1016.8 |
| 20260503192454 | 62 | 335 | 9.6 | 13.9 | 0.00 | 0.00 | 0.00 | 27 | 1016.7 |
| 20260503191950 | 63 | 288 | 6.1 | 8.7 | 0.00 | 0.00 | 0.00 | 30 | 1016.8 |
| 20260503191448 | 62 | 89 | 0.0 | 4.3 | 0.00 | 0.00 | 0.00 | 37 | 1016.9 |
| 20260503190944 | 62 | 237 | 4.3 | 7.0 | 0.00 | 0.00 | 0.00 | 30 | 1016.9 |
| 20260503190442 | 62 | 299 | 6.1 | 8.7 | 0.00 | 0.00 | 0.00 | 30 | 1016.9 |
| 20260503185938 | 61 | 225 | 4.3 | 6.1 | 0.00 | 0.00 | 0.00 | 30 | 1017.0 |
| 20260503185435 | 62 | 324 | 5.2 | 7.0 | 0.00 | 0.00 | 0.00 | 29 | 1017.2 |
| 20260503184934 | 61 | 256 | 4.3 | 8.7 | 0.00 | 0.00 | 0.00 | 34 | 1016.9 |
| 20260503184431 | 61 | 319 | 5.2 | 7.0 | 0.00 | 0.00 | 0.00 | 30 | 1017.4 |
| 20260503183927 | 61 | 336 | 2.6 | 6.1 | 0.00 | 0.00 | 0.00 | 32 | 1017.3 |
| 20260503183424 | 60 | 240 | 6.1 | 11.3 | 0.00 | 0.00 | 0.00 | 32 | 1017.3 |
| 20260503182921 | 60 | 345 | 7.0 | 12.2 | 0.00 | 0.00 | 0.00 | 30 | 1017.4 |
| 20260503182420 | 60 | 318 | 5.2 | 11.3 | 0.00 | 0.00 | 0.00 | 29 | 1017.2 |
| 20260503181917 | 60 | 284 | 7.8 | 11.3 | 0.00 | 0.00 | 0.00 | 30 | 1017.4 |
| 20260503181414 | 61 | 188 | 7.8 | 9.6 | 0.00 | 0.00 | 0.00 | 31 | 1017.4 |
| 20260503180910 | 60 | 0 | 3.5 | 8.7 | 0.00 | 0.00 | 0.00 | 32 | 1017.5 |
| 20260503180408 | 59 | 301 | 7.0 | 9.6 | 0.00 | 0.00 | 0.00 | 32 | 1017.6 |
| 20260503175904 | 59 | 204 | 7.0 | 12.2 | 0.00 | 0.00 | 0.00 | 31 | 1017.6 |
| 20260503175403 | 59 | 316 | 3.5 | 7.0 | 0.00 | 0.00 | 0.00 | 34 | 1017.8 |
| 20260503174858 | 60 | 243 | 4.3 | 11.3 | 0.00 | 0.00 | 0.00 | 32 | 1017.7 |
| 20260503174356 | 59 | 301 | 4.3 | 13.9 | 0.00 | 0.00 | 0.00 | 32 | 1017.7 |
| 20260503173851 | 59 | 282 | 2.6 | 9.6 | 0.00 | 0.00 | 0.00 | 35 | 1017.6 |
| 20260503173348 | 58 | 260 | 4.3 | 6.1 | 0.00 | 0.00 | 0.00 | 33 | 1017.9 |
| 20260503172844 | 58 | 29 | 5.2 | 8.7 | 0.00 | 0.00 | 0.00 | 33 | 1017.7 |
| 20260503172342 | 58 | 221 | 0.9 | 11.3 | 0.00 | 0.00 | 0.00 | 32 | 1018.1 |
| 20260503171838 | 59 | 345 | 8.7 | 11.3 | 0.00 | 0.00 | 0.00 | 35 | 1017.9 |
| 20260503171335 | 58 | 256 | 6.1 | 11.3 | 0.00 | 0.00 | 0.00 | 35 | 1018.0 |
| 20260503170832 | 59 | 316 | 7.8 | 15.6 | 0.00 | 0.00 | 0.00 | 33 | 1017.9 |
| 20260503170328 | 59 | 163 | 0.0 | 6.1 | 0.00 | 0.00 | 0.00 | 37 | 1018.1 |
| 20260503150721 | 54 | 307 | 5.2 | 11.3 | 0.00 | 0.00 | 0.00 | 36 | 1019.1 |
| 20260503150217 | 54 | 275 | 7.8 | 13.9 | 0.00 | 0.00 | 0.00 | 36 | 1019.1 |
| 20260503140141 | 51 | 335 | 7.8 | 9.6 | 0.00 | 0.00 | 0.00 | 42 | 1019.3 |
| 20260503131111 | 50 | 307 | 5.2 | 9.6 | 0.00 | 0.00 | 0.00 | 47 | 1019.7 |
| 20260503130609 | 49 | 22 | 7.0 | 12.2 | 0.00 | 0.00 | 0.00 | 47 | 1019.4 |
| 20260503130106 | 49 | 318 | 7.0 | 8.7 | 0.00 | 0.00 | 0.00 | 49 | 1019.6 |
| 20260503110458 | 38 | 171 | 0.0 | 1.7 | 0.00 | 0.00 | 0.00 | 76 | 1018.6 |
| 20260503090344 | 42 | 342 | 0.9 | 1.7 | 0.00 | 0.00 | 0.00 | 64 | 1017.4 |
| 20260503081311 | 43 | 335 | 2.6 | 6.1 | 0.00 | 0.00 | 0.00 | 62 | 1017.4 |
| 20260503080808 | 43 | 327 | 2.6 | 2.6 | 0.00 | 0.00 | 0.00 | 63 | 1017.3 |
| 20260503080305 | 43 | 289 | 3.5 | 6.1 | 0.00 | 0.00 | 0.00 | 63 | 1017.3 |
| 20260503072741 | 41 | 243 | 0.0 | 0.0 | 0.00 | 0.00 | 0.00 | 70 | 1016.8 |
| 20260503072238 | 42 | 245 | 0.9 | 1.7 | 0.00 | 0.00 | 0.00 | 71 | 1016.8 |
| 20260503071734 | 42 | 246 | 0.0 | 1.7 | 0.00 | 0.00 | 0.00 | 69 | 1016.7 |
| 20260503071231 | 42 | 247 | 0.0 | 0.0 | 0.00 | 0.00 | 0.00 | 69 | 1016.8 |
| 20260503070728 | 42 | 247 | 0.0 | 0.0 | 0.00 | 0.00 | 0.00 | 68 | 1017.0 |
| 20260503070226 | 42 | 252 | 1.7 | 2.6 | 0.00 | 0.00 | 0.00 | 66 | 1016.6 |
| 20260503060151 | 44 | 302 | 1.7 | 4.3 | 0.00 | 0.00 | 0.00 | 61 | 1016.6 |
| 20260503054638 | 44 | 329 | 3.5 | 6.1 | 0.00 | 0.00 | 0.00 | 60 | 1016.4 |
| 20260503054135 | 44 | 326 | 3.5 | 8.7 | 0.00 | 0.00 | 0.00 | 59 | 1016.5 |
| 20260503053633 | 43 | 297 | 2.6 | 4.3 | 0.00 | 0.00 | 0.00 | 62 | 1016.5 |
| 20260503053132 | 41 | 342 | 6.1 | 8.7 | 0.00 | 0.00 | 0.00 | 65 | 1016.5 |
| 20260503052628 | 39 | 254 | 4.3 | 6.1 | 0.00 | 0.00 | 0.00 | 76 | 1016.5 |
| 20260503052124 | 38 | 163 | 0.0 | 1.7 | 0.00 | 0.00 | 0.00 | 75 | 1016.2 |
| 20260503051619 | 38 | 191 | 1.7 | 1.7 | 0.00 | 0.00 | 0.00 | 75 | 1016.3 |
| 20260503051118 | 38 | 121 | 0.9 | 1.7 | 0.00 | 0.00 | 0.00 | 75 | 1016.4 |
| 20260503050614 | 39 | 248 | 0.9 | 1.7 | 0.00 | 0.00 | 0.00 | 74 | 1016.5 |
| 20260503050110 | 39 | 191 | 0.0 | 2.6 | 0.00 | 0.00 | 0.00 | 74 | 1016.6 |
| 20260503045608 | 39 | 149 | 0.0 | 0.0 | 0.00 | 0.00 | 0.00 | 74 | 1016.4 |
| 20260503045105 | 40 | 160 | 0.0 | 1.7 | 0.00 | 0.00 | 0.00 | 72 | 1016.5 |
| 20260503044601 | 39 | 168 | 0.0 | 1.7 | 0.00 | 0.00 | 0.00 | 72 | 1016.9 |
| 20260503044059 | 39 | 169 | 0.9 | 1.7 | 0.00 | 0.00 | 0.00 | 72 | 1016.6 |
| 20260503043555 | 40 | 188 | 0.0 | 1.7 | 0.00 | 0.00 | 0.00 | 70 | 1016.6 |
| 20260503043052 | 39 | 178 | 1.7 | 2.6 | 0.00 | 0.00 | 0.00 | 72 | 1016.5 |
| 20260503042549 | 40 | 161 | 0.0 | 0.0 | 0.00 | 0.00 | 0.00 | 71 | 1016.7 |
| 20260503042045 | 40 | 164 | 0.0 | 0.0 | 0.00 | 0.00 | 0.00 | 70 | 1016.7 |
| 20260503041542 | 41 | 164 | 0.0 | 0.0 | 0.00 | 0.00 | 0.00 | 67 | 1016.5 |
| 20260503041040 | 42 | 160 | 0.0 | 0.0 | 0.00 | 0.00 | 0.00 | 66 | 1016.6 |
| 20260503040537 | 43 | 134 | 0.9 | 1.7 | 0.00 | 0.00 | 0.00 | 65 | 1016.6 |
| 20260503040034 | 44 | 202 | 0.0 | 1.7 | 0.00 | 0.00 | 0.00 | 62 | 1016.5 |
| 20260503035531 | 44 | 132 | 0.0 | 1.7 | 0.00 | 0.00 | 0.00 | 60 | 1016.5 |
| 20260503035029 | 45 | 100 | 1.7 | 2.6 | 0.00 | 0.00 | 0.00 | 59 | 1016.5 |
| 20260503034526 | 45 | 321 | 3.5 | 4.3 | 0.00 | 0.00 | 0.00 | 58 | 1016.5 |
| 20260503034022 | 45 | 197 | 0.0 | 1.7 | 0.00 | 0.00 | 0.00 | 58 | 1016.5 |
| 20260503033520 | 45 | 168 | 0.0 | 1.7 | 0.00 | 0.00 | 0.00 | 58 | 1016.5 |
| 20260503033018 | 46 | 158 | 0.0 | 1.7 | 0.00 | 0.00 | 0.00 | 57 | 1016.4 |
| 20260503032516 | 46 | 248 | 1.7 | 2.6 | 0.00 | 0.00 | 0.00 | 57 | 1016.5 |
| 20260503032014 | 46 | 211 | 0.9 | 2.6 | 0.00 | 0.00 | 0.00 | 56 | 1016.4 |
| 20260503031511 | 47 | 330 | 2.6 | 4.3 | 0.00 | 0.00 | 0.00 | 55 | 1016.8 |
| 20260503031008 | 46 | 130 | 0.0 | 1.7 | 0.00 | 0.00 | 0.00 | 56 | 1016.6 |
| 20260503030504 | 46 | 133 | 0.0 | 1.7 | 0.00 | 0.00 | 0.00 | 56 | 1016.4 |
| 20260503030001 | 47 | 156 | 0.0 | 0.0 | 0.00 | 0.00 | 0.00 | 55 | 1016.6 |
| 20260503025458 | 47 | 320 | 6.1 | 7.0 | 0.00 | 0.00 | 0.00 | 54 | 1016.7 |
| 20260503024956 | 48 | 261 | 1.7 | 2.6 | 0.00 | 0.00 | 0.00 | 54 | 1016.6 |
| 20260503024451 | 48 | 335 | 4.3 | 6.1 | 0.00 | 0.00 | 0.00 | 53 | 1016.5 |
| 20260503023949 | 48 | 157 | 0.0 | 7.0 | 0.00 | 0.00 | 0.00 | 53 | 1016.5 |
| 20260503023446 | 48 | 95 | 0.0 | 6.1 | 0.00 | 0.00 | 0.00 | 53 | 1016.5 |
| 20260503022943 | 48 | 26 | 2.6 | 6.1 | 0.00 | 0.00 | 0.00 | 53 | 1016.4 |
| 20260503022438 | 49 | 290 | 2.6 | 4.3 | 0.00 | 0.00 | 0.00 | 52 | 1016.5 |
| 20260503021934 | 49 | 313 | 2.6 | 7.0 | 0.00 | 0.00 | 0.00 | 52 | 1016.2 |
| 20260503021430 | 50 | 319 | 2.6 | 8.7 | 0.00 | 0.00 | 0.00 | 51 | 1016.2 |
| 20260503020928 | 50 | 314 | 4.3 | 8.7 | 0.00 | 0.00 | 0.00 | 50 | 1016.4 |
| 20260503020425 | 50 | 16 | 4.3 | 7.0 | 0.00 | 0.00 | 0.00 | 49 | 1016.3 |
| 20260503015922 | 50 | 299 | 8.7 | 11.3 | 0.00 | 0.00 | 0.00 | 49 | 1016.1 |
| 20260503015419 | 51 | 64 | 6.1 | 12.2 | 0.00 | 0.00 | 0.00 | 49 | 1016.2 |
| 20260503014914 | 51 | 81 | 2.6 | 12.2 | 0.00 | 0.00 | 0.00 | 48 | 1016.1 |
| 20260503014412 | 51 | 40 | 3.5 | 11.3 | 0.00 | 0.00 | 0.00 | 48 | 1016.0 |
| 20260503013910 | 51 | 333 | 2.6 | 11.3 | 0.00 | 0.00 | 0.00 | 48 | 1016.0 |
| 20260503013406 | 51 | 343 | 6.1 | 9.6 | 0.00 | 0.00 | 0.00 | 48 | 1015.9 |
| 20260503012903 | 51 | 9 | 2.6 | 6.1 | 0.00 | 0.00 | 0.00 | 48 | 1015.8 |
| 20260503012401 | 51 | 231 | 0.9 | 2.6 | 0.00 | 0.00 | 0.00 | 48 | 1015.9 |
| 20260503011857 | 51 | 307 | 3.5 | 8.7 | 0.00 | 0.00 | 0.00 | 47 | 1015.5 |
| 20260503011355 | 52 | 185 | 0.9 | 2.6 | 0.00 | 0.00 | 0.00 | 48 | 1015.6 |
| 20260503010851 | 52 | 338 | 6.1 | 9.6 | 0.00 | 0.00 | 0.00 | 47 | 1015.6 |
| 20260503010348 | 52 | 36 | 1.7 | 2.6 | 0.00 | 0.00 | 0.00 | 48 | 1015.3 |
| 20260503005845 | 52 | 136 | 0.9 | 2.6 | 0.00 | 0.00 | 0.00 | 48 | 1015.3 |
| 20260503005343 | 52 | 219 | 1.7 | 8.7 | 0.00 | 0.00 | 0.00 | 47 | 1015.3 |
| 20260503004838 | 52 | 351 | 2.6 | 4.3 | 0.00 | 0.00 | 0.00 | 47 | 1014.9 |
| 20260503004336 | 52 | 339 | 4.3 | 8.7 | 0.00 | 0.00 | 0.00 | 46 | 1014.8 |
| 20260503003833 | 53 | 332 | 2.6 | 6.1 | 0.00 | 0.00 | 0.00 | 47 | 1014.9 |
| 20260503003330 | 53 | 359 | 4.3 | 6.1 | 0.00 | 0.00 | 0.00 | 46 | 1014.8 |
| 20260503002827 | 53 | 322 | 4.3 | 7.0 | 0.00 | 0.00 | 0.00 | 45 | 1014.7 |
| 20260503002324 | 53 | 156 | 0.0 | 1.7 | 0.00 | 0.00 | 0.00 | 45 | 1014.7 |
| 20260503001821 | 53 | 326 | 2.6 | 4.3 | 0.00 | 0.00 | 0.00 | 44 | 1014.7 |
| 20260503001317 | 53 | 221 | 0.9 | 2.6 | 0.00 | 0.00 | 0.00 | 45 | 1014.4 |
| 20260503000815 | 53 | 179 | 0.0 | 1.7 | 0.00 | 0.00 | 0.00 | 46 | 1014.3 |
| 20260503000312 | 53 | 194 | 0.0 | 4.3 | 0.00 | 0.00 | 0.00 | 44 | 1014.4 |
| 20260502235809 | 54 | 47 | 1.7 | 2.6 | 0.00 | 0.00 | 0.00 | 43 | 1014.3 |
| 20260502235306 | 54 | 343 | 0.9 | 2.6 | 0.00 | 0.00 | 0.00 | 42 | 1014.4 |
| 20260502234803 | 54 | 357 | 4.3 | 7.0 | 0.00 | 0.00 | 0.00 | 42 | 1014.0 |
| 20260502234300 | 54 | 345 | 3.5 | 6.1 | 0.00 | 0.00 | 0.00 | 41 | 1014.1 |
| 20260502233756 | 55 | 336 | 4.3 | 8.7 | 0.00 | 0.00 | 0.00 | 40 | 1013.8 |
| 20260502233253 | 55 | 313 | 4.3 | 7.0 | 0.00 | 0.00 | 0.00 | 41 | 1013.9 |
| 20260502232749 | 55 | 332 | 4.3 | 6.1 | 0.00 | 0.00 | 0.00 | 41 | 1013.8 |
| 20260502232246 | 55 | 308 | 2.6 | 6.1 | 0.00 | 0.00 | 0.00 | 40 | 1013.9 |
| 20260502231742 | 55 | 353 | 8.7 | 11.3 | 0.00 | 0.00 | 0.00 | 40 | 1013.9 |
| 20260502231240 | 55 | 313 | 4.3 | 6.1 | 0.00 | 0.00 | 0.00 | 39 | 1013.7 |
| 20260502230739 | 55 | 338 | 4.3 | 7.0 | 0.00 | 0.00 | 0.00 | 39 | 1013.8 |
| 20260502230237 | 55 | 0 | 7.8 | 11.3 | 0.00 | 0.00 | 0.00 | 38 | 1013.7 |
| 20260502225732 | 56 | 52 | 1.7 | 7.0 | 0.00 | 0.00 | 0.00 | 37 | 1013.6 |